Location: Natural Bridges National Monument
(37.6093°N, 109.9767°W)
Time: 11:44:48
(UTC-06:00)

Amateur Radio Satellites - All Passes

Search period start: 24 July 2014 11:14
Search period end: 25 July 2014 11:14
Location: Natural Bridges National Monument, 37.6093°N, 109.9767°W

Satellite Date Start Highest point End Downlink Frequencies (MHz)
Time Altitude Azimuth
Oscar 11 24 Jul 11:44:59 11:48:57 36° 288° (WNW) 11:52:55 145.825 FM, Beacon 2401.500 USB
Sapphire 24 Jul 11:45:17 11:50:42 69° 61° (ENE) 11:56:05 437.095 MHz 1200 baud AX-25 AFSK
FUNcube-1 24 Jul 11:51:44 11:55:55 88° 283° (WNW) 12:00:06 145.950 - 145.970 MHz USB
HO-68 24 Jul 12:11:35 12:16:47 22° 301° (WNW) 12:21:59 435.675 MHz FM
PCSat 24 Jul 12:19:22 12:24:40 56° 247° (WSW) 12:29:56 145.825 MHz
Oscar 19 24 Jul 13:07:38 13:11:29 22° 66° (ENE) 13:15:20 437.125 CW, 437.150 USB
Sapphire 24 Jul 13:30:44 13:33:28 14° 257° (WSW) 13:36:13 437.095 MHz 1200 baud AX-25 AFSK
Oscar 16 24 Jul 13:34:00 13:38:46 41° 71° (ENE) 13:43:34 437.025 USB, Beacon 2401.1428
SO-50 24 Jul 13:36:03 13:39:55 30° 113° (ESE) 13:43:51 436.795 FM
ITAMSAT 1 24 Jul 13:45:11 13:49:17 24° 66° (ENE) 13:53:23 435.822 SSB
RS-15 24 Jul 13:54:21 14:04:34 43° 108° (ESE) 14:14:31 29.354 - 29.394 USB, Beacon 29.352 USB
Gurwin Techsat 1B 24 Jul 13:59:15 14:01:34 13° 61° (ENE) 14:03:53 435.225 FM
AO-27 24 Jul 14:02:19 14:07:01 35° 69° (ENE) 14:11:44 436.795 MHz FM
AO-Echo 24 Jul 14:02:24 14:07:09 35° 70° (ENE) 14:11:57 ?
Uribyol 2 24 Jul 14:05:07 14:09:54 39° 70° (ENE) 14:14:42 436.500 FM
JAS-1B 24 Jul 14:15:48 14:23:33 39° 63° (ENE) 14:32:12 435.800 - 435.900 CW/SSB
Oscar 19 24 Jul 14:45:45 14:50:32 41° 261° (W) 14:55:21 437.125 CW, 437.150 USB
AO-7 24 Jul 15:01:56 15:07:23 20° 53° (NE) 15:12:50 29.400 - 29.500 MHz
Oscar 16 24 Jul 15:14:27 15:18:15 21° 266° (W) 15:22:04 437.025 USB, Beacon 2401.1428
TMSAT-1 24 Jul 15:14:39 15:19:43 48° 72° (ENE) 15:24:48 436.925 FM
SO-50 24 Jul 15:16:37 15:20:26 27° 310° (NW) 15:24:20 436.795 FM
ITAMSAT 1 24 Jul 15:23:40 15:28:31 39° 262° (W) 15:33:24 435.822 SSB
Gurwin Techsat 1B 24 Jul 15:35:31 15:40:50 78° 257° (WSW) 15:46:10 435.225 FM
AO-Echo 24 Jul 15:41:32 15:45:54 27° 265° (W) 15:50:21 ?
KITSAT 1 24 Jul 15:42:08 15:48:58 29° 46° (NE) 15:55:44 435.175 FM
AO-27 24 Jul 15:42:15 15:46:33 26° 264° (W) 15:50:52 436.795 MHz FM
Uribyol 2 24 Jul 15:45:23 15:49:28 23° 265° (W) 15:53:33 436.500 FM
Uosat F 24 Jul 15:55:45 15:59:56 27° 67° (ENE) 16:04:08 435.120 FM
UOSAT-12 24 Jul 16:03:44 16:08:17 70° 118° (ESE) 16:12:56 437.025 FM, 437.400 FM
JAS-1B 24 Jul 16:05:35 16:13:38 51° 263° (W) 16:22:55 435.800 - 435.900 CW/SSB
RS-15 24 Jul 16:05:50 16:16:37 53° 309° (NW) 16:27:15 29.354 - 29.394 USB, Beacon 29.352 USB
OPAL 24 Jul 16:31:42 16:35:38 22° 97° (E) 16:39:34 ?
Saudisat 1A 24 Jul 16:50:01 16:50:44 10° 41° (NE) 16:51:26 436.775 MHz
AO-7 24 Jul 16:50:40 16:59:02 89° 72° (ENE) 17:07:28 29.400 - 29.500 MHz
TMSAT-1 24 Jul 16:56:11 16:59:51 19° 267° (W) 17:03:33 436.925 FM
Uosat F 24 Jul 17:34:06 17:38:34 32° 263° (W) 17:43:05 435.120 FM
KITSAT 1 24 Jul 17:36:58 17:44:58 68° 246° (WSW) 17:52:54 435.175 FM
UOSAT-12 24 Jul 17:46:11 17:48:56 15° 316° (NW) 17:51:43 437.025 FM, 437.400 FM
JAS-2 24 Jul 18:01:36 18:08:48 41° 68° (ENE) 18:15:43 435.800 - 435.900 CW/SSB, 435.910 FM
OPAL 24 Jul 18:09:55 18:14:35 39° 292° (WNW) 18:19:18 ?
Hamsat 24 Jul 18:18:10 18:22:12 51° 74° (ENE) 18:26:16 145.90 MHz
RS-15 24 Jul 18:25:17 18:32:20 19° 339° (NNW) 18:39:25 29.354 - 29.394 USB, Beacon 29.352 USB
Saudisat 1A 24 Jul 18:26:37 18:31:03 80° 59° (ENE) 18:35:25 436.775 MHz
AO-7 24 Jul 18:47:51 18:52:43 17° 269° (W) 18:57:38 29.400 - 29.500 MHz
STRAND 1 24 Jul 18:48:41 18:50:28 12° 91° (E) 18:52:15 ?
SO-67 24 Jul 18:54:15 18:56:22 16° 69° (ENE) 18:58:30 435.3500 MHz FM
JAS-2 24 Jul 19:46:23 19:53:40 41° 263° (W) 20:00:46 435.800 - 435.900 CW/SSB, 435.910 FM
Hamsat 24 Jul 19:57:11 19:58:28 11° 269° (W) 19:59:45 145.90 MHz
STRAND 1 24 Jul 20:25:02 20:30:08 71° 286° (WNW) 20:35:11 ?
SO-67 24 Jul 20:26:19 20:29:13 25° 264° (W) 20:32:09 435.3500 MHz FM
RS-15 24 Jul 20:44:28 20:51:03 17° 17° (NNE) 20:57:40 29.354 - 29.394 USB, Beacon 29.352 USB
HO-68 24 Jul 20:49:06 20:55:43 42° 66° (ENE) 21:02:21 435.675 MHz FM
Oscar 11 24 Jul 21:04:51 21:06:16 12° 64° (ENE) 21:07:42 145.825 FM, Beacon 2401.500 USB
UKube-1 24 Jul 21:47:12 21:51:33 79° 76° (ENE) 21:55:57 145.840 MHz, 145.915 MHz
SO-50 24 Jul 22:09:24 22:12:55 20° 47° (NE) 22:16:28 436.795 FM
HO-68 24 Jul 22:37:02 22:43:25 35° 262° (W) 22:49:51 435.675 MHz FM
Oscar 11 24 Jul 22:37:41 22:41:55 59° 259° (W) 22:46:11 145.825 FM, Beacon 2401.500 USB
FUNcube-1 24 Jul 22:46:07 22:50:26 58° 75° (ENE) 22:54:40 145.950 - 145.970 MHz USB
RS-15 24 Jul 22:56:51 23:07:20 46° 48° (NE) 23:18:05 29.354 - 29.394 USB, Beacon 29.352 USB
MaSat-1 24 Jul 23:09:20 23:13:07 57° 297° (WNW) 23:17:35 437.345 MHz
SO-50 24 Jul 23:49:08 23:53:46 51° 244° (WSW) 23:58:25 436.795 FM
FUNcube-1 25 Jul 00:26:04 00:27:08 11° 269° (W) 00:28:11 145.950 - 145.970 MHz USB
Lituanica SAT-1 25 Jul 00:32:05 00:33:59 29° 324° (NW) 00:35:53 437.275 MHz beacon
UOSAT-12 25 Jul 00:35:21 00:39:44 36° 53° (NE) 00:44:03 437.025 FM, 437.400 FM
Sapphire 25 Jul 00:46:46 00:47:45 11° 102° (ESE) 00:48:44 437.095 MHz 1200 baud AX-25 AFSK
RS-15 25 Jul 01:09:16 01:19:49 53° 249° (WSW) 01:30:48 29.354 - 29.394 USB, Beacon 29.352 USB
PCSat 25 Jul 01:16:56 01:21:15 25° 107° (ESE) 01:25:34 145.825 MHz
ISS 25 Jul 01:39:12 01:42:32 84° 321° (NW) 01:45:53 145.800 FM
Oscar 16 25 Jul 01:48:39 01:51:57 17° 93° (E) 01:55:15 437.025 USB, Beacon 2401.1428
JAS-1B 25 Jul 02:08:23 02:11:09 12° 81° (E) 02:13:49 435.800 - 435.900 CW/SSB
AO-Echo 25 Jul 02:13:51 02:15:54 12° 90° (E) 02:17:54 ?
UOSAT-12 25 Jul 02:15:55 02:19:41 24° 249° (WSW) 02:23:23 437.025 FM, 437.400 FM
AO-27 25 Jul 02:18:45 02:21:26 14° 92° (E) 02:24:07 436.795 MHz FM
Uribyol 2 25 Jul 02:21:02 02:24:05 16° 92° (E) 02:27:07 436.500 FM
Sapphire 25 Jul 02:24:57 02:30:21 86° 297° (WNW) 02:35:48 437.095 MHz 1200 baud AX-25 AFSK
Oscar 19 25 Jul 02:58:49 03:04:00 82° 103° (ESE) 03:09:10 437.125 CW, 437.150 USB
PCSat 25 Jul 02:59:18 03:04:23 41° 303° (WNW) 03:09:31 145.825 MHz
ISS 25 Jul 03:17:39 03:19:39 15° 338° (NNW) 03:21:39 145.800 FM
Oscar 16 25 Jul 03:26:35 03:31:34 51° 288° (WNW) 03:36:33 437.025 USB, Beacon 2401.1428
TMSAT-1 25 Jul 03:33:07 03:37:13 22° 94° (E) 03:41:16 436.925 FM
ITAMSAT 1 25 Jul 03:38:06 03:43:18 88° 103° (ESE) 03:48:28 435.822 SSB
OPAL 25 Jul 03:44:51 03:49:13 32° 67° (ENE) 03:53:35 ?
AO-Echo 25 Jul 03:50:04 03:55:09 66° 286° (WNW) 04:00:03 ?
Gurwin Techsat 1B 25 Jul 03:53:50 03:59:00 50° 100° (E) 04:04:07 435.225 FM
JAS-1B 25 Jul 03:53:59 04:03:31 69° 101° (E) 04:11:40 435.800 - 435.900 CW/SSB
AO-27 25 Jul 03:56:13 04:01:20 61° 287° (WNW) 04:06:25 436.795 MHz FM
Uribyol 2 25 Jul 03:58:50 04:03:52 55° 287° (WNW) 04:08:53 436.500 FM
Sapphire 25 Jul 04:11:57 04:14:35 14° 316° (NW) 04:17:13 437.095 MHz 1200 baud AX-25 AFSK
Oscar 19 25 Jul 04:40:54 04:42:36 12° 299° (WNW) 04:44:19 437.125 CW, 437.150 USB
AO-7 25 Jul 04:55:06 05:02:28 34° 98° (E) 05:09:45 29.400 - 29.500 MHz
TMSAT-1 25 Jul 05:12:19 05:17:15 41° 289° (WNW) 05:22:09 436.925 FM
ITAMSAT 1 25 Jul 05:20:45 05:22:00 11° 300° (WNW) 05:23:16 435.822 SSB
OPAL 25 Jul 05:24:00 05:28:05 26° 262° (W) 05:32:11 ?
Gurwin Techsat 1B 25 Jul 05:34:51 05:38:33 20° 295° (WNW) 05:42:14 435.225 FM
Uosat F 25 Jul 05:43:04 05:48:07 89° 284° (WNW) 05:53:07 435.120 FM
JAS-1B 25 Jul 05:45:20 05:53:03 29° 302° (WNW) 06:00:04 435.800 - 435.900 CW/SSB
STRAND 1 25 Jul 06:02:25 06:05:27 16° 63° (ENE) 06:08:29 ?
Hamsat 25 Jul 06:08:22 06:09:22 11° 91° (E) 06:10:22 145.90 MHz
KITSAT 1 25 Jul 06:10:05 06:15:50 22° 103° (ESE) 06:21:35 435.175 FM
ISS 25 Jul 06:34:08 06:35:33 12° 19° (NNE) 06:36:57 145.800 FM
Lituanica SAT-1 25 Jul 06:45:43 06:47:46 55° 39° (NE) 06:49:48 437.275 MHz beacon
AO-7 25 Jul 06:47:28 06:55:24 51° 295° (WNW) 07:03:17 29.400 - 29.500 MHz
JAS-2 25 Jul 06:59:31 07:04:55 33° 95° (E) 07:09:48 435.800 - 435.900 CW/SSB, 435.910 FM
PANSAT 25 Jul 07:03:48 07:05:44 13° 165° (SSE) 07:07:40 not established
MaSat-1 25 Jul 07:29:40 07:34:05 26° 55° (NE) 07:38:21 437.345 MHz
STRAND 1 25 Jul 07:39:02 07:44:07 60° 259° (W) 07:49:13 ?
Hamsat 25 Jul 07:41:26 07:45:39 57° 285° (WNW) 07:49:53 145.90 MHz
SO-67 25 Jul 07:51:59 07:54:48 23° 96° (E) 07:57:36 435.3500 MHz FM
KITSAT 1 25 Jul 08:02:18 08:10:23 74° 300° (WNW) 08:18:31 435.175 FM
ISS 25 Jul 08:09:33 08:12:50 53° 37° (NE) 08:16:06 145.800 FM
Saudisat 1A 25 Jul 08:31:37 08:35:32 32° 114° (ESE) 08:39:29 436.775 MHz
PANSAT 25 Jul 08:42:23 08:45:19 21° 177° (S) 08:48:14 not established
JAS-2 25 Jul 08:44:39 08:49:54 30° 295° (WNW) 08:54:40 435.800 - 435.900 CW/SSB, 435.910 FM
MaSat-1 25 Jul 09:06:38 09:11:37 42° 253° (WSW) 09:16:19 437.345 MHz
SO-67 25 Jul 09:25:23 09:27:42 17° 290° (WNW) 09:30:01 435.3500 MHz FM
UKube-1 25 Jul 09:38:53 09:41:27 15° 93° (E) 09:44:01 145.840 MHz, 145.915 MHz
ISS 25 Jul 09:47:23 09:49:10 14° 232° (SW) 09:50:57 145.800 FM
KITSAT 1 25 Jul 10:01:53 10:07:15 19° 322° (NW) 10:12:39 435.175 FM
HO-68 25 Jul 10:05:52 10:12:48 52° 101° (E) 10:19:41 435.675 MHz FM
PCSat 25 Jul 10:06:50 10:10:08 16° 46° (NE) 10:13:24 145.825 MHz
Saudisat 1A 25 Jul 10:11:27 10:15:08 25° 310° (NW) 10:18:50 436.775 MHz
PANSAT 25 Jul 10:22:22 10:24:56 17° 190° (S) 10:27:29 not established
Oscar 11 25 Jul 10:27:34 10:31:18 27° 96° (E) 10:35:00 145.825 FM, Beacon 2401.500 USB
FUNcube-1 25 Jul 10:39:15 10:40:53 12° 92° (E) 10:42:30 145.950 - 145.970 MHz USB
